Printer-friendly version

IAU Minor Planet Center

Minor Planet Center

MPEC 2000-U14: 2000 UH1

The following Minor Planet Electronic Circular may be linked-to from your own Web pages, but must not otherwise be redistributed electronically.


Read MPEC 2000-U13 Read MPEC 2000-U15


M.P.E.C. 2000-U14                                Issued 2000 Oct. 23, 16:20 UT

     The Minor Planet Electronic Circulars contain information on unusual
         minor planets and routine data on comets.  They are published
   on behalf of Commission 20 of the International Astronomical Union by the
          Minor Planet Center, Smithsonian Astrophysical Observatory,
                          Cambridge, MA 02138, U.S.A.

             Prepared using the Tamkin Foundation Computer Network

                              MPC@CFA.HARVARD.EDU
          URL http://cfa-www.harvard.edu/iau/mpc.html  ISSN 1523-6714

                                   2000 UH1

Observations:
     K00U01H* C2000 10 18.37482 03 54 55.65 -20 05 02.0          18.6        704
     K00U01H  C2000 10 18.38927 03 54 56.54 -20 05 17.0          18.4        704
     K00U01H  C2000 10 18.40352 03 54 57.26 -20 05 35.2          18.6        704
     K00U01H  C2000 10 18.41832 03 54 58.12 -20 05 53.3          18.8        704
     K00U01H  C2000 10 20.19479 03 56 58.99 -20 40 35.6                      808
     K00U01H  C2000 10 20.20313 03 56 59.38 -20 40 45.5                      808
     K00U01H  C2000 10 20.21562 03 57 00.13 -20 41 00.5                      808
     K00U01H  C2000 10 20.22326 03 57 00.58 -20 41 09.7                      808
     K00U01H  C2000 10 20.23021 03 57 01.03 -20 41 18.9                      808
     K00U01H  C2000 10 20.23715 03 57 01.40 -20 41 26.7                      808
     K00U01H  C2000 10 20.24688 03 57 01.95 -20 41 38.7                      808
     K00U01H  C2000 10 20.27882 03 57 03.81 -20 42 17.2                      808
     K00U01H  C2000 10 20.28646 03 57 04.32 -20 42 27.0                      808
     K00U01H  C2000 10 20.29340 03 57 04.74 -20 42 35.3                      808
     K00U01H  C2000 10 20.30035 03 57 05.14 -20 42 43.5                      808
     K00U01H  C2000 10 20.30729 03 57 05.54 -20 42 51.5                      808
     K00U01H  C2000 10 20.31493 03 57 05.95 -20 43 01.1                      808
     K00U01H  C2000 10 20.31828 03 57 06.82 -20 43 31.3          19.2 V      734
     K00U01H  C2000 10 20.32187 03 57 06.36 -20 43 09.6                      808
     K00U01H  C2000 10 20.32221 03 57 07.09 -20 43 35.2          19.0 V      734
     K00U01H  C2000 10 20.32583 03 57 07.31 -20 43 40.0          19.1 V      734
     K00U01H  C2000 10 20.98108 03 57 51.96 -20 56 59.2          17.6 R      046
     K00U01H  C2000 10 20.98247 03 57 52.08 -20 57 02.0                      046
     K00U01H  C2000 10 20.98374 03 57 52.18 -20 57 03.0                      046
     K00U01H  C2000 10 20.98776 03 57 52.49 -20 57 08.4                      046
     K00U01H SC2000 10 21.04617 03 57 55.95 -20 58 20.8                      557
     K00U01H SC2000 10 21.05197 03 57 56.43 -20 58 27.4                      557
     K00U01H  C2000 10 21.06479 03 57 57.04 -20 58 42.1                      557
     K00U01H  C2000 10 21.22257 03 58 08.44 -21 01 25.1                      808
     K00U01H  C2000 10 21.23924 03 58 09.43 -21 01 45.7                      808
     K00U01H  C2000 10 21.24618 03 58 09.85 -21 01 54.5                      808
     K00U01H  C2000 10 21.25312 03 58 10.30 -21 02 03.4                      808
     K00U01H  C2000 10 21.26007 03 58 10.72 -21 02 12.3                      808
     K00U01H  C2000 10 21.27292 03 58 11.41 -21 02 27.5                      808
     K00U01H  C2000 10 21.27951 03 58 11.80 -21 02 35.8                      808
     K00U01H  C2000 10 21.28646 03 58 12.25 -21 02 44.9                      808
     K00U01H  C2000 10 21.29630 03 58 12.79 -21 02 56.5                      808
     K00U01H  C2000 10 21.31076 03 58 13.67 -21 03 14.1                      808
     K00U01H  C2000 10 21.31840 03 58 13.96 -21 03 22.7                      808
     K00U01H  C2000 10 22.19236 03 59 15.01 -21 21 26.5                      808
     K00U01H  C2000 10 22.20150 03 59 15.53 -21 21 37.9                      808
     K00U01H  C2000 10 22.21076 03 59 16.07 -21 21 50.1                      808
     K00U01H  C2000 10 22.21910 03 59 16.58 -21 22 00.4                      808
     K00U01H  C2000 10 22.22743 03 59 17.03 -21 22 11.1                      808
     K00U01H  C2000 10 22.23785 03 59 17.65 -21 22 23.9                      808
     K00U01H  C2000 10 22.25243 03 59 18.56 -21 22 42.4                      808
     K00U01H  C2000 10 22.26852 03 59 19.46 -21 23 02.6                      808
     K00U01H  C2000 10 22.27951 03 59 20.16 -21 23 16.4                      808
     K00U01H  C2000 10 22.28970 03 59 20.77 -21 23 29.4                      808
     K00U01H  C2000 10 22.30035 03 59 21.31 -21 23 43.1                      808
     K00U01H  C2000 10 22.30856 03 59 21.87 -21 23 53.0                      808
     K00U01H  C2000 10 23.05546 04 00 13.58 -21 40 11.3          17.2 R      046
     K00U01H  C2000 10 23.05683 04 00 13.68 -21 40 13.5                      046
     K00U01H  C2000 10 23.05793 04 00 13.74 -21 40 14.1                      046
     K00U01H  C2000 10 23.05895 04 00 13.77 -21 40 15.4                      046
     K00U01H  C2000 10 23.06050 04 00 13.90 -21 40 17.5                      046
     K00U01H  C2000 10 23.44000 04 00 41.65 -21 47 47.9          18.0 R      467
     K00U01H  C2000 10 23.44076 04 00 41.68 -21 47 48.5          17.6 R      467
     K00U01H  C2000 10 23.45058 04 00 42.30 -21 48 01.4          17.7 R      467
     K00U01H  C2000 10 23.45170 04 00 42.35 -21 48 02.9          17.6 R      467
     K00U01H  C2000 10 23.45392 04 00 42.52 -21 48 05.5          17.5 R      467
     K00U01H  C2000 10 23.45727 04 00 42.70 -21 48 10.1          17.6 R      467

Observer details:
046 Klet.  Observers J. Ticha, M. Tichy, M. Kocer.  0.57-m f/5.2
    reflector + CCD.
467 Auckland Observatory.  Observer I. P. Griffin. 0.35-m
    Schmidt-Cassegrain + CCD.
557 Ondrejov.  Observer L. Sarounova.  0.65-m f/3.6 reflector + CCD.
704 Lincoln Laboratory ETS, New Mexico.  Observers M. Blythe, F. Shelly,
    M. Bezpalko, M. Elowitz, R. Huber, L. Manguso.  Measurers J. Stuart,
    R. Sayer, J. B. Evans, H. Viggh.  1.0-m f/2.15 reflector + CCD.
734 Farpoint Observatory.  Observer G. Hug.  0.30-m  Schmidt-Cassegrain + CCD.
808 El Leoncito.  Observers C. E. Lopez, H. S. Lepez.  0.5-m f/7.5
    double astrograph + CCD.

Orbital elements:
2000 UH1
Epoch 2000 Oct. 3.0 TT = JDT 2451820.5                  Spahr
M 322.41097              (2000.0)            P               Q
n   0.40909398     Peri.   42.03972     -0.43957381     -0.86453303
a   1.7971624      Node    75.37642     +0.74236891     -0.50238125
e   0.5244935      Incl.   14.58350     +0.50563155     -0.01399015
P   2.41           H   18.9           G   0.15
From 62 observations 2000 Oct. 18-23.

Ephemeris:
2000 UH1                 a,e,i = 1.80, 0.52, 15                  q = 0.8546
Date    TT    R. A. (2000) Decl.     Delta      r     Elong.  Phase     V
2000 10 13    03 48.91   -18 25.2    0.413    1.317   133.6    33.3    19.0
2000 10 23    04 00.16   -21 38.6    0.318    1.238   134.2    35.2    18.3
2000 11 02    04 12.98   -25 37.6    0.230    1.160   132.4    39.2    17.6

2000 11 12    04 34.47   -31 24.3    0.148    1.085   126.8    46.9    16.7
2000 11 17    04 57.06   -36 11.5    0.109    1.049   121.1    53.8    16.2
2000 11 22    05 50.38   -44 18.0    0.072    1.015   110.0    66.1    15.6
2000 11 27    08 59.21   -53 19.7    0.045    0.983    83.4    93.9    15.5
2000 12 02    13 14.15   -27 23.5    0.048    0.953    45.4   132.5    18.2

2001 01 11    15 59.71   +09 00.6    0.365    0.862    60.1    98.4    19.9
2001 01 21    16 15.75   +07 37.7    0.439    0.888    64.5    89.0    20.0
2001 01 31    16 31.29   +06 06.0    0.502    0.933    69.1    80.7    20.1
2001 02 10    16 45.52   +04 39.5    0.552    0.990    74.1    73.5    20.2
2001 02 20    16 57.59   +03 24.5    0.586    1.058    79.9    67.0    20.2
2001 03 02    17 06.52   +02 21.9    0.607    1.131    86.6    61.0    20.3
2001 03 12    17 11.42   +01 28.7    0.615    1.208    94.4    55.1    20.3
2001 03 22    17 11.40   +00 40.1    0.615    1.287   103.4    48.9    20.2
2001 04 01    17 05.55   -00 10.0    0.610    1.366   114.0    42.0    20.1
2001 04 11    16 53.45   -01 09.1    0.606    1.444   125.9    34.2    20.0
2001 04 21    16 35.53   -02 22.1    0.611    1.521   139.2    25.6    19.9
2001 05 01    16 13.49   -03 50.7    0.632    1.596   152.9    16.7    19.8
2001 05 11    15 50.40   -05 31.4    0.674    1.669   164.5     9.3    19.8
2001 05 21    15 29.44   -07 16.8    0.740    1.740   166.1     8.0    20.0
2001 05 31    15 12.88   -09 01.2    0.830    1.808   157.1    12.6    20.5
2001 06 10    15 01.61   -10 41.6    0.942    1.873   146.4    17.5    21.1
2001 06 20    14 55.39   -12 17.1    1.071    1.936   136.1    21.3    21.5
2001 06 30    14 53.59   -13 48.2    1.215    1.997   126.7    24.1    22.0
Timothy B. Spahr             (C) Copyright 2000 MPC           M.P.E.C. 2000-U14

Read MPEC 2000-U13 Read MPEC 2000-U15


Our Web policy. Index to the CBAT/MPC/ICQ pages.


Valid HTML 4.01!